Location: Alta
(39.2070°N, 120.8111°W)
Time: 07:07:09
(UTC+00:00)

CZ-4B DEB - Pass Details

Date: 12 December 2023
Orbit: 838 x 858 km, 99.0° (Epoch: 02 March)

Event Time Altitude Azimuth Distance (km) Brightness Sun altitude
Rises 14:24:33 0° 38° (NE) 3,422 7.6 -9.3°
Reaches altitude 10° 14:29:08 10° 74° (ENE) 2,473 7.5 -8.5°
Maximum altitude 14:30:34 11° 89° (E) 2,400 7.8 -8.3°
Drops below altitude 10° 14:31:59 10° 104° (ESE) 2,465 8.3 -8.0°
Sets 14:36:30 0° 140° (SE) 3,387 8.7 -7.2°
